Hourly Weather Senden

Today, 27 January, Wednesday

Time Temperature Precipitation Wind Pressure Humidity
00:00 -7°C° 0 mm 4 mps 720 mmHg 91%
01:00 -6°C° 0 mm 3 mps 720 mmHg 93%
02:00 -6°C° 0 mm 3 mps 719 mmHg 92%
03:00 -7°C° 0 mm 3 mps 719 mmHg 91%
04:00 -7°C° 0 mm 3 mps 718 mmHg 91%
05:00 -8°C° 0 mm 3 mps 718 mmHg 90%
06:00 -8°C° 0 mm 3 mps 718 mmHg 89%
07:00 -7°C° 0 mm 2 mps 717 mmHg 88%
08:00 -7°C° 0 mm 3 mps 717 mmHg 87%
09:00 -6°C° 0 mm 3 mps 717 mmHg 87%
10:00 -5°C° 0 mm 4 mps 717 mmHg 86%
11:00 -5°C° 0.3 mm 4 mps 716 mmHg 89%
12:00 -4°C° 0.3 mm 4 mps 716 mmHg 92%
13:00 -4°C° 0.3 mm 4 mps 716 mmHg 95%
14:00 -3°C° 0.3 mm 4 mps 715 mmHg 95%
15:00 -3°C° 0.3 mm 4 mps 715 mmHg 95%
16:00 -3°C° 0.3 mm 4 mps 715 mmHg 94%
17:00 -3°C° 0 mm 4 mps 715 mmHg 95%
18:00 -3°C° 0 mm 4 mps 715 mmHg 95%
19:00 -2°C° 0 mm 5 mps 715 mmHg 95%
20:00 -2°C° 0 mm 5 mps 715 mmHg 95%
21:00 -2°C° 0 mm 4 mps 715 mmHg 95%
22:00 -2°C° 0 mm 4 mps 715 mmHg 95%
23:00 -2°C° 0 mm 4 mps 715 mmHg 95%

Tomorrow, 28 January, Thursday

Time Temperature Precipitation Wind Pressure Humidity
00:00 -2°C° 0 mm 4 mps 715 mmHg 95%
01:00 -1°C° 0 mm 3 mps 715 mmHg 95%
02:00 0°C° 0 mm 3 mps 714 mmHg 96%
03:00 0°C° 0 mm 3 mps 714 mmHg 97%
04:00 0°C° 0 mm 3 mps 714 mmHg 98%
05:00 0°C° 0.2 mm 3 mps 713 mmHg 98%
06:00 +1°C° 0.2 mm 3 mps 713 mmHg 99%
07:00 +1°C° 0.2 mm 3 mps 713 mmHg 99%
08:00 0°C° 0.9 mm 4 mps 712 mmHg 99%
09:00 0°C° 0.9 mm 4 mps 711 mmHg 99%
10:00 +1°C° 0.9 mm 5 mps 711 mmHg 99%
11:00 +1°C° 2.2 mm 5 mps 710 mmHg 99%
12:00 +1°C° 2.2 mm 6 mps 709 mmHg 99%
13:00 +2°C° 2.2 mm 7 mps 709 mmHg 99%
14:00 +1°C° 1.3 mm 8 mps 708 mmHg 98%
15:00 +2°C° 1.3 mm 8 mps 708 mmHg 98%
16:00 +2°C° 1.3 mm 9 mps 708 mmHg 97%
17:00 +2°C° 0.5 mm 9 mps 708 mmHg 97%
18:00 +4°C° 0.5 mm 8 mps 709 mmHg 96%
19:00 +4°C° 0.5 mm 8 mps 709 mmHg 95%
20:00 +4°C° 0.2 mm 8 mps 709 mmHg 95%
21:00 +4°C° 0.2 mm 7 mps 709 mmHg 95%
22:00 +4°C° 0.2 mm 7 mps 710 mmHg 95%
23:00 +4°C° 0.2 mm 7 mps 710 mmHg 95%

Day after tomorrow, 29 January, Friday

Time Temperature Precipitation Wind Pressure Humidity
00:00 +4°C° 0.2 mm 7 mps 710 mmHg 95%
01:00 +3°C° 0.2 mm 7 mps 710 mmHg 95%
02:00 +3°C° 0.1 mm 6 mps 709 mmHg 95%
03:00 +3°C° 0.1 mm 6 mps 709 mmHg 95%
04:00 +3°C° 0.1 mm 5 mps 708 mmHg 96%
05:00 +3°C° 0.7 mm 5 mps 707 mmHg 96%
06:00 +3°C° 0.7 mm 5 mps 706 mmHg 96%
07:00 +3°C° 0.7 mm 5 mps 705 mmHg 96%
08:00 +3°C° 1.3 mm 6 mps 705 mmHg 95%
09:00 +4°C° 1.3 mm 7 mps 704 mmHg 95%
10:00 +4°C° 1.3 mm 7 mps 704 mmHg 94%
11:00 +4°C° 1.4 mm 8 mps 704 mmHg 93%
12:00 +4°C° 1.4 mm 8 mps 705 mmHg 91%
13:00 +4°C° 1.4 mm 8 mps 706 mmHg 90%
14:00 +4°C° 0.1 mm 8 mps 706 mmHg 88%
15:00 +4°C° 0.1 mm 7 mps 706 mmHg 87%
16:00 +4°C° 0.1 mm 7 mps 707 mmHg 85%
17:00 +3°C° 0.1 mm 6 mps 707 mmHg 87%
18:00 +3°C° 0.1 mm 6 mps 707 mmHg 88%
19:00 +2°C° 0.1 mm 6 mps 707 mmHg 90%
20:00 +2°C° 0 mm 6 mps 707 mmHg 90%
21:00 +2°C° 0 mm 6 mps 707 mmHg 90%
22:00 +2°C° 0 mm 6 mps 707 mmHg 91%
23:00 +2°C° 0.2 mm 7 mps 708 mmHg 91%

30 January, Saturday

Time Temperature Precipitation Wind Pressure Humidity
00:00 +2°C° 0.2 mm 7 mps 708 mmHg 91%
01:00 +2°C° 0.2 mm 7 mps 708 mmHg 91%
02:00 +2°C° 0.1 mm 7 mps 708 mmHg 92%
03:00 +2°C° 0.1 mm 7 mps 707 mmHg 92%
04:00 0°C° 0.1 mm 7 mps 707 mmHg 92%
05:00 +2°C° 0 mm 7 mps 707 mmHg 92%
06:00 +2°C° 0 mm 6 mps 706 mmHg 91%
07:00 +2°C° 0 mm 5 mps 706 mmHg 91%
08:00 +2°C° 0 mm 5 mps 706 mmHg 90%
09:00 +3°C° 0 mm 4 mps 706 mmHg 89%
10:00 +3°C° 0 mm 4 mps 705 mmHg 88%
11:00 +4°C° 0 mm 3 mps 705 mmHg 86%
12:00 +4°C° 0 mm 3 mps 704 mmHg 84%
13:00 +6°C° 0 mm 2 mps 704 mmHg 82%
14:00 +6°C° 0.1 mm 2 mps 703 mmHg 84%
15:00 +6°C° 0.1 mm 1 mps 703 mmHg 87%
16:00 +6°C° 0.1 mm 1 mps 702 mmHg 90%
17:00 +5°C° 0.6 mm 1 mps 702 mmHg 92%
18:00 +4°C° 0.6 mm 2 mps 702 mmHg 94%
19:00 +2°C° 0.6 mm 3 mps 703 mmHg 96%
20:00 +2°C° 0.9 mm 3 mps 703 mmHg 97%
21:00 +2°C° 0.9 mm 3 mps 703 mmHg 97%
22:00 +1°C° 0.9 mm 3 mps 703 mmHg 97%
23:00 +1°C° 0.9 mm 3 mps 703 mmHg 97%

31 January, Sunday

Time Temperature Precipitation Wind Pressure Humidity
00:00 +1°C° 0.9 mm 3 mps 704 mmHg 98%
01:00 +1°C° 0.9 mm 3 mps 704 mmHg 98%
02:00 +2°C° 0.4 mm 2 mps 704 mmHg 97%
03:00 +1°C° 0.4 mm 2 mps 704 mmHg 97%
04:00 +1°C° 0.4 mm 2 mps 704 mmHg 97%
05:00 +1°C° 0.2 mm 2 mps 704 mmHg 96%
06:00 -1°C° 0.2 mm 2 mps 705 mmHg 96%
07:00 -1°C° 0.2 mm 2 mps 705 mmHg 96%
08:00 -1°C° 0 mm 2 mps 705 mmHg 95%
09:00 -1°C° 0 mm 2 mps 706 mmHg 95%
10:00 -2°C° 0 mm 2 mps 706 mmHg 94%
11:00 -1°C° 0 mm 2 mps 706 mmHg 92%
12:00 +2°C° 0 mm 1 mps 706 mmHg 91%
13:00 +2°C° 0 mm 1 mps 706 mmHg 89%
14:00 +3°C° 0 mm 1 mps 706 mmHg 89%
15:00 +3°C° 0 mm 1 mps 706 mmHg 89%
16:00 +3°C° 0 mm 1 mps 706 mmHg 89%
17:00 +3°C° 0 mm 1 mps 707 mmHg 91%
18:00 +3°C° 0 mm 1 mps 707 mmHg 93%
19:00 +3°C° 0 mm 1 mps 707 mmHg 95%
20:00 +3°C° 0 mm 1 mps 707 mmHg 96%
21:00 +3°C° 0 mm 1 mps 707 mmHg 96%
22:00 +3°C° 0 mm 1 mps 707 mmHg 97%
23:00 +3°C° 0 mm 1 mps 706 mmHg 97%

1 February, Monday

Time Temperature Precipitation Wind Pressure Humidity
00:00 +2°C° 0 mm 1 mps 706 mmHg 97%
01:00 +2°C° 0 mm 1 mps 706 mmHg 97%
02:00 +2°C° 0 mm 1 mps 706 mmHg 96%
03:00 +2°C° 0 mm 1 mps 706 mmHg 95%
04:00 +2°C° 0 mm 1 mps 706 mmHg 94%
05:00 +2°C° 0 mm 1 mps 706 mmHg 92%
06:00 +2°C° 0 mm 1 mps 706 mmHg 91%
07:00 +2°C° 0 mm 1 mps 706 mmHg 90%
08:00 +1°C° 0.1 mm 2 mps 706 mmHg 89%
09:00 +2°C° 0.1 mm 2 mps 707 mmHg 89%
10:00 +2°C° 0.1 mm 3 mps 707 mmHg 88%
11:00 +1°C° 0.4 mm 4 mps 707 mmHg 90%
12:00 +1°C° 0.4 mm 4 mps 707 mmHg 92%
13:00 +1°C° 0.4 mm 5 mps 707 mmHg 93%
14:00 +2°C° 0.5 mm 5 mps 707 mmHg 93%
15:00 +2°C° 0.5 mm 5 mps 708 mmHg 94%
16:00 +3°C° 0.5 mm 5 mps 708 mmHg 94%
17:00 +3°C° 0.8 mm 6 mps 708 mmHg 93%
18:00 +4°C° 0.8 mm 7 mps 709 mmHg 92%
19:00 +4°C° 0.8 mm 7 mps 709 mmHg 91%
20:00 +4°C° 0.1 mm 7 mps 710 mmHg 90%
21:00 +3°C° 0.1 mm 6 mps 710 mmHg 89%
22:00 +3°C° 0.1 mm 6 mps 711 mmHg 88%
23:00 +3°C° 0 mm 6 mps 711 mmHg 89%
Show more

We Need Your Consent

Meteoprog and our Service Providers may store and access personal data such as cookies, device identifiers or other similar technologies on your device and process such data to personalise content and ads, as well as provide social media features and to analyse the traffic.

  • Store and/or access information on your device

    Cookies, device identifiers or other information can be stored or accessed on your device for the purposes indicated above.

  • Personalised ads and content, ad and content measurement, audience insights, and products development

    Ads and content can be personalised based on a profile. More data can be added to better personalise ads and content. Ad and content performance can be measured. Insights about the audience who saw the ads and content can be derived. Such data can be used to develop or improve user’s experience, systems and software.

By clicking ‘I Agree’ you will allow the use of indicated cookies, device identifiers, web beacons or other similar technologies. Your settings can be changed in the browser on your device.

For certain purposes, legitimate interests may be relied on, rather than consent. You can read more about this in our Privacy and Cookie Policy.